Lapse_Rate
9.4 7.2 5.5 5.2 5.3 5.2 5.4 5.4 5.6 5.6 5.6 5.7 5.9 6.0 6.0 5.9 6.1 6.0 6.3 6.0 5.4 5.4 5.8 6.6 7.1 7.3 6.6 6.4 6.5 6.3 6.4 6.0 5.8 5.5 5.4 5.6 5.8 6.1 6.1 5.7 6.4 5.8 5.4
9.6 7.0 5.7 5.3 5.1 5.1 5.3 5.4 5.5 5.5 5.6 5.6 5.8 5.8 6.0 6.2 6.3 6.4 6.5 6.4 5.9 5.8 6.6 7.1 6.8 7.0 6.3 6.5 6.4 6.3 5.5 5.6 5.7 5.3 5.2 5.2 5.2 5.3 5.2 5.1 5.4 5.8 5.9
9.6 8.3 6.2 5.2 5.0 5.1 5.3 5.3 5.3 5.5 5.6 5.6 5.8 5.9 6.1 6.3 6.4 6.4 6.4 6.4 6.2 6.5 7.0 6.9 7.1 6.5 6.9 6.6 6.3 6.1 5.8 5.6 5.8 6.1 6.3 6.0 5.2 5.1 5.1 5.0 5.7 6.1 6.2
9.8 8.9 8.4 5.1 5.0 5.2 5.4 5.3 5.2 5.5 5.7 5.7 5.8 5.7 6.1 6.3 6.4 6.5 6.5 6.5 6.5 7.3 6.7 6.4 6.3 6.1 5.8 5.6 5.7 5.6 5.9 6.0 6.1 7.1 9.6 9.2 6.7 5.7 5.9 5.8 7.0 6.3 6.7
9.8 8.0 9.0 5.8 5.1 5.3 5.4 5.3 5.3 5.4 5.6 5.7 5.7 5.7 6.1 6.1 6.2 6.5 6.8 6.6 7.0 6.5 6.3 5.9 5.5 5.6 5.4 5.4 5.3 5.4 5.7 6.3 7.2 9.4 9.5 9.2 8.2 7.1 7.3 7.3 6.6 6.1 6.0
9.8 8.4 5.9 6.0 5.7 5.3 5.3 5.4 5.5 5.4 5.5 5.7 5.6 5.7 5.9 6.0 6.2 6.5 6.7 6.4 6.0 5.9 5.8 5.6 5.5 5.4 5.1 4.8 4.5 4.7 5.4 6.3 8.9 9.5 9.3 8.7 6.9 5.7 6.3 5.8 5.9 5.8 5.6
8.2 9.1 6.4 5.9 6.1 5.6 5.2 5.4 5.5 5.5 5.6 5.7 5.8 5.8 5.9 6.0 6.1 6.7 6.0 5.4 5.6 5.7 5.7 5.6 5.5 5.2 4.6 4.3 4.2 4.5 5.0 6.8 9.7 9.6 9.6 7.4 6.5 6.6 7.4 5.7 5.7 5.6 5.9
2.6 8.3 7.5 5.7 6.0 5.8 5.4 5.5 5.5 5.5 5.6 5.6 5.8 5.8 5.8 6.0 6.1 5.8 5.5 5.3 5.3 5.6 5.7 5.7 5.4 5.1 4.3 4.0 3.8 4.1 5.5 7.6 9.7 9.6 9.2 6.6 5.9 6.3 6.5 5.7 5.9 5.5 5.6
4.6 7.5 7.2 6.6 6.2 5.8 5.6 5.5 5.5 5.5 5.4 5.6 5.6 5.8 5.8 5.9 5.8 5.6 5.5 5.4 5.4 5.4 5.6 5.4 5.3 4.7 4.1 3.6 3.5 3.7 4.9 7.2 9.6 9.3 8.5 6.4 5.7 5.9 5.8 5.5 5.5 5.5 5.6
3.9 3.9 7.2 7.0 6.6 7.4 6.9 5.1 5.1 5.2 5.3 5.7 5.6 5.7 5.6 5.4 5.4 5.7 5.4 5.5 5.5 5.4 5.5 5.0 5.0 4.3 3.7 3.2 3.1 4.2 6.0 8.0 9.6 9.6 8.1 5.5 5.4 5.5 5.4 5.5 5.4 5.4 5.3
5.4 3.2 6.3 6.9 6.8 9.0 9.2 6.9 5.1 5.1 5.5 5.6 5.1 4.8 4.9 6.3 6.6 6.0 7.1 5.2 5.0 5.1 5.2 4.8 4.3 3.6 3.0 2.7 3.1 4.6 5.8 9.6 9.7 9.4 6.0 5.0 5.4 5.4 5.2 5.2 5.1 5.0 4.9
5.8 3.7 3.2 6.5 8.1 9.4 9.5 8.8 9.0 8.1 7.5 7.5 6.8 5.7 7.1 7.0 7.4 8.8 6.0 5.3 5.3 5.3 5.1 4.5 3.8 3.2 4.6 4.8 4.6 4.6 8.6 9.7 9.6 9.0 5.4 4.9 5.2 5.2 4.9 4.7 4.7 4.7 4.7
6.0 4.1 1.5 6.2 7.4 9.5 9.9 9.2 10.0 9.4 9.1 9.0 7.4 7.1 7.5 7.6 7.9 7.2 6.6 6.6 5.7 6.0 6.0 5.2 4.3 5.9 8.1 7.0 6.4 9.6 9.7 9.6 9.6 8.0 4.6 4.7 5.1 5.1 4.9 4.6 4.7 4.6 4.6
5.8 3.2 2.5 3.5 4.3 9.3 10.4 10.3 10.1 10.1 9.7 8.2 6.8 7.3 7.2 7.6 8.6 8.2 8.8 8.8 7.7 8.2 7.1 6.5 7.6 9.6 9.6 9.4 9.6 9.7 9.7 9.7 9.7 8.5 4.7 4.6 4.9 5.0 4.9 4.7 4.6 4.5 4.6
4.9 2.7 1.9 2.9 4.5 9.7 9.9 10.2 10.4 9.8 9.4 6.8 7.3 6.5 7.5 7.4 9.1 9.2 9.9 9.7 9.4 9.7 9.3 8.6 9.7 9.7 9.7 9.7 9.7 9.7 9.7 9.6 9.6 9.5 5.8 4.1 4.4 4.6 4.8 4.7 4.7 4.7 4.7
6.5 3.3 2.6 4.0 4.6 6.7 10.0 9.8 10.5 9.2 8.4 7.3 6.6 6.5 7.3 8.0 9.4 9.3 9.6 9.8 9.8 9.8 9.7 9.7 9.7 9.7 9.7 9.7 9.7 9.6 9.7 9.5 9.6 9.5 7.4 4.6 4.0 4.3 4.7 4.8 5.0 4.9 4.9
6.8 3.3 2.5 4.5 4.4 4.8 9.4 9.7 10.1 9.3 8.0 7.0 6.5 7.1 7.7 8.1 9.5 8.3 8.8 9.8 9.8 9.7 9.7 9.7 9.7 9.7 9.7 9.7 9.7 9.7 9.7 9.6 9.5 8.8 8.7 7.5 4.5 3.8 4.2 4.8 5.0 4.9 4.9
6.2 4.0 2.9 4.5 4.5 5.0 8.9 9.3 9.9 10.3 10.2 8.7 7.4 7.6 7.9 8.6 9.4 7.6 7.1 9.0 9.7 9.8 9.8 9.8 9.8 9.6 9.5 9.5 9.5 9.6 9.7 9.7 9.7 9.6 8.8 8.4 8.2 6.4 4.2 4.1 4.8 5.1 5.0
6.1 4.5 4.3 3.5 4.2 5.0 8.3 9.4 9.8 9.8 10.1 10.2 9.9 9.4 9.2 8.3 9.5 7.3 7.4 8.2 9.8 9.8 9.7 9.5 9.5 9.5 9.2 9.3 9.4 9.5 9.6 9.5 9.0 9.3 9.3 9.0 8.9 7.8 8.4 5.4 4.8 4.8 5.2
6.3 4.3 4.6 2.6 5.6 3.9 7.0 8.4 9.6 9.8 9.8 9.9 9.8 9.8 9.7 8.0 9.5 8.3 7.9 9.2 9.7 9.6 9.6 9.3 9.2 9.4 9.4 9.2 9.4 9.2 9.0 8.3 8.2 8.3 8.8 9.3 9.5 8.8 7.4 8.5 5.6 5.1 4.8
6.4 4.5 4.4 4.8 3.9 5.3 6.3 8.2 8.8 9.0 9.3 9.4 9.4 9.3 9.3 9.1 9.9 9.9 9.9 9.7 9.6 9.4 9.5 9.5 9.1 8.9 8.8 9.1 8.8 8.3 8.5 8.5 7.8 8.1 8.3 8.0 9.3 8.7 8.2 8.5 8.7 9.1 7.4
6.6 4.5 6.1 4.7 5.0 4.5 6.3 8.1 7.8 8.6 9.1 9.0 9.1 9.3 9.3 9.5 9.3 9.9 9.4 9.1 9.5 9.4 9.5 9.3 8.7 7.8 7.9 7.2 8.2 8.1 7.7 8.0 7.5 8.5 8.9 9.1 8.4 8.7 9.1 8.7 9.3 9.4 9.3
6.8 5.0 5.0 5.1 3.9 5.1 4.8 6.6 8.4 8.6 8.8 8.8 8.9 8.9 9.0 9.3 8.6 8.8 8.4 8.7 9.5 9.4 9.0 8.1 7.4 6.8 7.6 6.6 6.9 7.7 7.3 7.2 7.6 7.5 7.6 8.0 8.2 7.7 8.1 8.0 7.4 8.0 9.3
6.5 5.6 5.8 4.8 4.1 4.3 5.0 5.5 7.0 6.2 7.4 8.2 8.4 8.5 8.6 8.9 8.7 8.5 8.6 8.9 8.8 8.9 8.2 6.8 6.6 7.0 7.7 7.0 7.0 7.2 7.4 8.0 7.9 7.7 7.8 8.1 8.2 7.6 6.9 6.3 5.8 6.5 7.2
5.8 6.0 6.1 4.2 2.0 2.2 4.6 5.5 5.4 5.2 7.0 8.5 8.2 8.3 8.2 8.5 7.9 7.6 7.3 8.1 7.7 7.0 6.6 6.0 5.8 6.1 6.9 7.4 7.8 7.0 8.3 8.4 8.2 7.2 7.6 7.7 7.5 6.6 5.0 3.8 5.2 6.8 5.7
5.8 5.9 5.5 5.6 2.7 3.7 5.3 5.1 5.8 6.2 6.7 7.0 7.1 7.8 7.6 7.2 6.8 7.0 7.2 7.0 6.3 5.6 5.7 5.7 5.6 5.7 6.3 5.8 6.2 6.5 7.0 7.2 7.0 6.3 5.9 6.0 6.3 5.3 3.2 3.9 4.8 4.8 2.8
Wind_Speed
11 21 24 25 24 22 24 25 24 23 24 24 24 25 23 21 20 21 23 22 22 20 20 18 18 19 18 18 17 19 22 23 24 24 23 23 21 19 18 16 19 20 21
17 25 25 24 25 24 25 26 25 24 24 24 24 25 24 22 21 21 22 21 21 21 19 17 18 22 20 19 21 22 24 23 22 23 25 24 20 20 20 21 20 21 21
15 24 27 25 24 24 26 27 26 25 24 24 25 25 25 24 21 22 23 21 20 20 19 21 23 21 21 21 20 20 19 18 18 21 19 18 19 19 20 19 18 21 21
14 21 26 25 24 24 25 28 28 26 26 25 26 26 25 24 23 24 23 22 19 17 20 22 23 21 20 19 19 17 15 11 9 12 17 18 18 18 18 18 19 20 20
15 21 22 23 24 24 24 27 28 28 27 26 26 26 25 25 25 25 23 20 18 20 21 23 23 20 18 18 17 15 12 8 6 16 16 16 16 17 17 17 18 19 20
15 23 25 23 23 23 24 26 28 28 27 26 26 26 25 25 25 24 22 19 22 22 21 22 21 19 17 16 15 13 10 7 8 16 16 17 17 17 17 17 17 18 18
10 17 28 25 23 22 24 26 27 28 27 26 26 26 25 25 25 24 22 23 23 22 21 21 20 18 17 16 14 12 5 2 13 16 16 17 16 16 16 16 16 17 17
14 13 24 26 24 23 23 24 26 26 26 26 25 26 25 25 26 23 24 24 23 22 21 20 18 17 17 16 14 9 4 3 14 16 16 15 15 15 15 15 15 15 15
12 8 17 22 25 22 22 22 24 25 25 26 25 25 24 25 25 25 24 23 23 21 20 20 17 17 17 16 13 7 2 4 14 14 15 14 14 15 14 14 14 14 14
12 12 18 21 22 24 23 19 21 22 23 23 23 23 24 26 26 25 22 20 20 22 21 20 18 17 16 16 12 10 7 6 13 13 14 14 13 14 13 12 13 13 13
10 8 15 19 17 24 24 22 19 22 23 24 23 25 28 23 25 24 21 20 21 22 22 20 18 17 16 15 12 12 7 10 11 13 13 11 12 12 12 11 11 12 11
13 12 17 22 20 19 17 23 24 23 23 24 24 27 23 23 22 21 23 21 22 22 20 20 18 19 16 13 11 8 7 10 10 13 13 11 11 11 11 11 10 10 10
12 5 16 12 14 19 15 14 15 17 18 21 23 24 21 20 20 19 18 19 20 21 16 17 17 14 14 13 12 8 10 10 10 13 12 10 10 10 10 9 9 8 8
10 10 9 16 17 19 11 12 12 12 15 13 19 24 16 11 14 14 15 17 17 17 17 16 14 13 13 12 10 10 9 9 9 12 11 8 9 9 9 8 8 7 7
11 7 9 12 20 18 18 14 13 13 10 15 20 18 17 11 10 14 15 16 16 17 16 14 12 12 12 11 11 9 8 8 9 10 12 9 8 8 8 8 8 7 6
8 5 7 12 16 11 16 19 13 12 16 17 17 17 19 16 11 10 9 12 14 15 15 14 11 10 8 10 8 9 8 7 7 7 13 10 9 8 8 8 8 7 7
8 2 6 9 11 27 21 19 13 14 16 9 13 18 19 18 16 15 8 10 12 16 17 14 13 11 7 8 7 8 8 8 6 7 6 12 11 10 10 10 10 9 8
8 3 7 5 10 17 17 14 12 13 12 12 14 16 18 18 17 16 9 8 16 14 12 8 7 7 6 6 6 5 5 6 7 7 7 7 10 12 13 13 11 12 11
10 4 6 2 7 12 16 14 14 16 12 12 17 18 22 21 21 16 9 11 18 11 8 7 6 7 5 5 4 4 3 3 5 6 8 9 9 7 9 18 17 13 13
12 6 7 5 3 10 11 13 11 11 11 11 10 12 21 20 22 19 15 15 14 8 7 6 7 5 5 5 4 3 4 4 5 5 7 9 8 9 10 7 14 13 16
11 5 9 8 4 13 12 12 12 12 11 11 11 19 18 22 23 18 10 11 11 9 9 9 6 7 3 2 3 3 4 4 5 4 5 7 7 8 10 11 11 11 15
11 9 15 13 6 4 5 10 12 11 10 9 9 13 22 22 20 16 12 10 12 8 10 9 8 5 4 3 2 2 2 3 4 4 4 4 5 7 8 11 12 12 11
9 9 9 15 9 3 11 8 9 9 8 9 10 11 13 18 20 14 16 10 11 8 8 8 7 6 4 3 3 1 1 0 1 4 3 3 4 3 5 6 8 13 10
7 7 8 9 5 4 12 10 17 12 13 11 11 10 11 16 13 16 14 13 11 7 8 6 6 5 3 5 3 2 2 4 2 3 3 3 2 2 2 4 6 9 5
5 7 11 11 12 1 14 16 15 14 11 10 10 14 13 13 15 16 15 12 10 7 7 8 6 6 4 2 2 3 3 1 4 4 5 4 2 1 2 2 4 4 2
5 10 10 11 9 4 12 13 19 18 15 11 11 12 11 10 10 12 13 9 9 8 8 7 7 6 4 2 1 1 2 2 1 1 1 3 6 4 2 2 5 3 6
Wind_Direction
142 146 164 159 155 155 157 159 158 157 154 153 152 146 146 143 142 137 133 128 126 132 131 131 136 116 112 106 102 99 94 89 86 83 77 74 76 76 72 74 80 79 77
151 157 166 163 158 155 157 158 158 158 158 157 155 149 149 148 146 146 135 132 135 138 137 128 127 116 116 109 101 101 101 99 95 94 90 81 77 78 76 69 75 81 79
163 163 169 165 160 157 159 158 158 159 160 158 157 153 152 150 152 146 139 139 140 142 134 124 118 118 114 109 106 104 102 103 111 110 104 86 84 85 84 82 83 83 81
175 160 178 167 162 161 161 159 158 159 159 159 158 156 155 153 149 142 142 143 147 139 127 122 115 112 110 108 108 102 102 97 113 143 86 91 90 87 88 89 87 85 84
182 152 178 170 163 162 159 158 159 159 159 161 160 158 158 155 154 148 147 148 146 125 125 119 115 114 114 111 107 104 102 96 68 93 89 89 94 94 94 93 87 84 83
201 161 147 167 168 164 159 158 160 160 160 162 161 161 160 156 153 150 147 134 126 128 125 119 118 120 115 112 112 114 128 144 103 95 99 91 92 98 96 94 92 90 89
257 164 158 165 173 168 164 160 162 161 161 163 164 162 162 158 154 149 141 130 128 130 128 125 125 120 116 116 116 123 137 247 113 105 99 100 101 102 100 96 94 92 90
320 153 168 164 171 174 172 166 164 163 162 163 166 164 160 157 155 143 138 134 132 134 133 129 126 122 120 119 117 125 135 39 106 100 97 99 105 105 99 98 95 93 91
303 231 174 170 170 173 176 170 169 168 166 166 166 165 159 156 152 144 141 138 139 137 133 127 127 124 123 120 121 124 100 352 105 109 113 110 108 106 101 101 97 94 90
321 332 189 172 172 182 181 170 167 166 165 166 166 162 151 150 148 143 137 140 138 137 129 124 128 128 126 123 125 138 139 116 109 102 93 107 110 108 105 102 100 97 93
319 321 240 178 171 181 180 178 168 164 164 160 154 147 149 155 151 149 150 137 131 129 127 127 131 128 123 121 140 164 184 122 114 105 107 112 115 114 110 107 103 104 102
312 321 320 181 170 182 172 171 181 176 173 172 166 165 161 160 153 157 141 137 133 126 125 129 135 138 142 136 156 202 194 123 115 107 114 120 123 121 119 117 116 113 110
294 302 318 190 183 175 171 168 179 174 176 177 169 170 163 162 153 139 146 145 140 135 137 139 147 166 158 148 175 152 141 123 121 111 124 130 130 130 129 127 125 122 120
280 301 331 280 288 181 171 175 174 176 177 162 167 163 156 157 150 151 160 163 157 163 154 156 179 162 165 161 154 149 142 132 128 120 131 131 136 138 140 141 143 141 135
256 303 318 302 282 177 175 176 169 179 169 156 166 154 158 163 158 162 165 161 168 168 165 175 171 162 162 160 153 147 138 140 133 133 137 148 149 153 159 160 162 161 158
264 289 313 295 269 261 183 184 169 161 168 162 157 165 157 171 174 162 175 166 170 163 166 173 168 168 162 159 153 150 152 144 150 145 138 161 168 174 180 180 183 183 182
254 275 275 274 301 256 172 180 173 156 164 160 159 166 170 175 176 142 180 162 165 165 170 173 166 164 166 160 167 169 169 168 169 168 161 156 178 194 201 200 199 199 199
241 294 313 332 310 310 169 167 168 171 168 163 165 174 171 176 160 152 170 177 158 167 170 169 170 171 167 171 170 176 178 186 193 188 187 201 185 190 207 216 217 212 209
226 194 253 206 266 301 221 165 165 173 180 167 177 175 175 173 177 162 172 188 165 163 168 168 174 174 170 184 167 172 195 196 212 221 215 215 216 228 204 202 215 222 226
229 206 210 183 309 269 216 167 161 164 169 169 170 172 169 175 178 165 178 187 166 161 169 183 177 179 178 175 175 196 205 223 233 226 230 235 236 213 240 243 199 225 233
229 209 209 195 295 316 194 165 160 163 170 169 168 158 177 175 172 174 175 173 165 166 176 180 172 184 184 134 177 196 239 228 230 234 225 256 228 230 238 238 238 227 211
219 219 180 162 170 338 265 173 172 159 163 161 160 162 183 168 178 173 163 166 176 172 183 181 175 176 171 177 190 10 251 175 222 215 224 232 248 256 237 244 249 239 252
208 212 174 168 153 350 272 171 149 141 144 158 170 170 179 167 168 183 154 170 177 173 177 179 169 179 170 156 246 305 181 25 341 138 181 214 233 229 252 292 274 258 261
192 179 174 157 143 288 334 189 159 156 169 174 171 171 166 164 167 167 168 174 170 174 162 169 176 183 182 166 156 238 316 351 338 315 138 199 178 326 319 255 279 292 264
164 169 149 121 114 30 289 286 163 157 164 169 164 165 167 164 168 174 172 173 169 161 162 165 169 183 185 158 176 140 210 307 258 237 277 306 325 71 332 352 312 289 88
204 155 140 130 105 42 323 182 164 164 159 165 162 169 168 165 168 170 170 164 157 158 168 168 164 163 147 141 87 243 218 245 248 218 256 278 289 301 282 302 272 197 191